Location: Newark
(16.3678°N, 77.8722°E)
Time: 22:24:08
(UTC+00:00)

Vanguard 2 Rocket - Visible Passes

Search period start: 12 December 2019 00:00
Search period end: 22 December 2019 00:00
Orbit: 554 x 3326 km, 32.9° (Epoch: 11 December)

Date Brightness Start Highest point End Pass type
(mag) Time Alt. Az. Time Alt. Az. Time Alt. Az.
12 Dec 8.9 14:09:56 10° WNW 14:20:27 29° NNW 14:22:40 26° N visible
13 Dec 9.1 13:05:38 10° W 13:19:26 36° NNW 13:26:33 16° NE visible
13 Dec 9.5 15:28:24 10° NW 15:32:21 19° NW 15:32:21 19° NW visible
14 Dec 8.9 14:25:21 10° WNW 14:35:33 29° N 14:36:14 28° N visible
15 Dec 9.0 13:21:22 10° WNW 13:34:25 33° N 13:40:09 20° NE visible
15 Dec 9.7 15:42:48 10° NW 15:45:57 18° NW 15:45:57 18° NW visible
16 Dec 9.5 12:16:53 10° W 12:32:53 40° NNW 12:42:59 10° NE visible
16 Dec 8.9 14:40:17 10° NW 14:49:53 31° N 14:49:53 31° N visible
17 Dec 8.9 13:36:48 10° WNW 13:49:36 34° N 13:53:50 25° NE visible
17 Dec 9.7 15:56:56 10° NW 15:59:39 18° NW 15:59:39 18° NW visible
18 Dec 9.4 12:32:36 10° WNW 12:48:00 37° N 12:57:45 10° ENE visible
18 Dec 8.8 14:54:46 10° NW 15:03:38 36° NNW 15:03:38 36° NNW visible
19 Dec 8.6 13:51:46 10° WNW 14:04:49 38° N 14:07:39 32° NE visible
19 Dec 9.8 16:11:02 10° WNW 16:13:28 18° NW 16:13:28 18° NW visible
20 Dec 9.2 12:48:02 10° WNW 13:03:16 38° N 13:11:42 14° ENE visible
20 Dec 8.7 15:08:58 10° NW 15:17:32 41° NNW 15:17:32 41° NNW visible
21 Dec 8.3 14:06:17 10° NW 14:19:56 47° NNE 14:21:39 43° NE visible
21 Dec 9.9 16:25:18 10° WNW 16:27:30 17° WNW 16:27:30 17° WNW visible
